軌道要素
Epoch 2010 Oct. 11.0 TT = JDT 2455480.5
T 2010 Oct. 8.76394 TT MPC
q 2.7379548 (2000.0) P Q
z +0.0035149 Peri. 271.69125 +0.05569772 +0.97190094
+/-0.0000017 Node 346.68569 +0.49321688 -0.22594447
e 0.9903763 Incl. 96.73026 -0.86812146 -0.06601261
From 123 observations 2010 Jan. 12-2011 Oct. 29, mean residual 0".6.
|